SCD 1 1 22490U 93009B 25348.13424889 .00000646 00000+0 12588-3 0 9991 2 22490 24.9696 270.0794 0041852 339.8321 42.8273 14.46000296734308 TECHSAT 1B (GO-32) 1 25397U 98043D 25347.90094553 .00000146 00000+0 83392-4 0 9995 2 25397 98.9921 331.1398 0002026 55.4203 304.7166 14.24377408424954 SCD 2 1 25504U 98060A 25347.73535005 .00000567 00000+0 10752-3 0 9993 2 25504 24.9935 135.7566 0016689 324.2474 167.6717 14.45424097433464 DLR-TUBSAT 1 25757U 99029B 25348.25017314 .00000206 00000+0 62487-4 0 9998 2 25757 98.6565 332.8106 0013991 188.0788 172.0183 14.52358401406402 TERRA 1 25994U 99068A 25348.31109007 .00000674 00000+0 14673-3 0 9994 2 25994 97.9749 39.9379 0003599 91.3882 338.4056 14.60904074382617 MAROC-TUBSAT 1 27004U 01056D 25348.34349324 -.00000013 00000+0 37930-4 0 9999 2 27004 99.7912 156.8165 0019109 255.8923 170.5435 13.70252956200870 AQUA 1 27424U 02022A 25348.35139582 .00001559 00000+0 32213-3 0 9996 2 27424 98.4039 309.2565 0001151 113.9889 48.0491 14.61814134256261 IRS-P6 (RESOURCESAT-1) 1 28051U 03046A 25348.38627380 .00000273 00000+0 10523-3 0 9993 2 28051 98.2181 28.7170 0064237 175.7373 241.8133 14.36076077154000 SHIYAN-1 (SY-1) 1 28220U 04012A 25348.16871678 .00014576 00000+0 53267-3 0 9995 2 28220 97.8937 49.7912 0005557 320.4788 39.6045 15.28196137182781 AURA 1 28376U 04026A 25348.29656898 .00001518 00000+0 31954-3 0 9992 2 28376 98.3186 298.5303 0001262 94.0328 266.1017 14.60951519139210 IRS-P5 (CARTOSAT-1) 1 28649U 05017A 25348.36039641 .00002476 00000+0 25950-3 0 9998 2 28649 97.5499 14.7020 0001147 48.5235 311.6082 14.90412626116282 SINAH 1 1 28893U 05043D 25348.32255756 .00000663 00000+0 13569-3 0 9990 2 28893 98.2603 116.8840 0015411 132.3381 227.9130 14.63964821 73470 EROS B 1 29079U 06014A 25348.34302573 .00160389 00000+0 13768-2 0 9990 2 29079 97.3463 104.9933 0002612 309.2192 50.8838 15.68871720 91059 RESURS-DK 1 1 29228U 06021A 25348.28565953 .00003306 00000+0 19725-3 0 9995 2 29228 69.9333 97.8432 0007095 257.9448 102.0923 15.12172471 74617 ARIRANG-2 (KOMPSAT-2) 1 29268U 06031A 25348.36336985 .00000624 00000+0 12611-3 0 9997 2 29268 97.8265 176.7570 0013445 303.7051 180.0187 14.64495923 34420 LAPAN-TUBSAT 1 29709U 07001A 25348.32937931 .00001356 00000+0 16278-3 0 9995 2 29709 98.1260 338.5186 0013561 69.4249 290.8419 14.85674735 23704 HAIYANG-1B 1 31113U 07010A 25347.92291891 .00000189 00000+0 87561-4 0 9997 2 31113 98.3315 332.1521 0014207 34.6099 325.6007 14.30965522974136 COSMO-SKYMED 1 1 31598U 07023A 25348.32680152 .00004634 00000+0 42067-3 0 9995 2 31598 97.8834 173.7361 0001358 90.4221 269.7155 14.95780283 2149 TERRASAR-X 1 31698U 07026A 25347.50908701 .00002120 00000+0 10410-3 0 9996 2 31698 97.4456 352.8775 0001764 89.7934 270.3503 15.19151549 25030 WORLDVIEW-1 (WV-1) 1 32060U 07041A 25348.29358662 .00009806 00000+0 39892-3 0 9992 2 32060 97.3831 105.7522 0000809 111.4383 248.6941 15.24724364 14719 YAOGAN-3 1 32289U 07055A 25348.36119013 .00002697 00000+0 28639-3 0 9991 2 32289 97.8371 14.9720 0001324 79.3413 280.7953 14.89868823978332 COSMO-SKYMED 2 1 32376U 07059A 25348.58730946 .00000689 00000+0 93138-4 0 9996 2 32376 97.8810 169.8833 0001392 83.8663 276.2709 14.82144731974652 RADARSAT-2 1 32382U 07061A 25348.31472993 .00000028 00000+0 27681-4 0 9999 2 32382 98.5803 352.8822 0001119 85.6544 274.4766 14.29982182939538 CARTOSAT-2A 1 32783U 08021A 25348.36211075 .00001421 00000+0 19927-3 0 9999 2 32783 97.7932 38.1349 0011728 359.5706 0.5493 14.78942089951484 HUANJING 1A (HJ-1A) 1 33320U 08041A 25348.31503245 .00002744 00000+0 33945-3 0 9992 2 33320 97.6542 336.5480 0020046 29.4047 330.8291 14.83403164930993 HUANJING 1B (HJ-1B) 1 33321U 08041B 25348.34173390 .00002532 00000+0 31515-3 0 9996 2 33321 97.6403 340.2665 0038190 70.6162 289.9174 14.82829786931011 GEOEYE 1 1 33331U 08042A 25348.29562718 .00000833 00000+0 16511-3 0 9999 2 33331 98.1252 59.5570 0002728 268.9575 91.1316 14.64815404923084 THEOS 1 33396U 08049A 25348.30215025 .00000172 00000+0 10092-3 0 9999 2 33396 98.5866 46.3454 0001147 96.8347 263.2961 14.20096870891727 COSMO-SKYMED 3 1 33412U 08054A 25348.33055402 .00005518 00000+0 38836-3 0 9993 2 33412 97.8477 198.7487 0016130 167.9396 192.2219 15.05377778929111 YAOGAN-4 1 33446U 08061A 25348.29086023 .00002059 00000+0 26156-3 0 9995 2 33446 97.9179 278.3750 0013468 317.8799 42.1378 14.82689567918269 GOSAT (IBUKI) 1 33492U 09002A 25348.29699750 .00001213 00000+0 22232-3 0 9991 2 33492 98.0770 96.8786 0000946 94.1589 265.9723 14.67558841904346 DEIMOS-1 1 35681U 09041A 25348.34239052 .00001012 00000+0 15766-3 0 9998 2 35681 97.7149 148.8708 0002728 77.8357 282.3159 14.74956194879637 DUBAISAT-1 1 35682U 09041B 25348.35501538 .00001748 00000+0 26965-3 0 9990 2 35682 97.9785 119.0108 0009472 308.9441 51.0923 14.74610756877858 OCEANSAT-2 1 35931U 09051A 25348.33477163 -.00000128 00000+0 -61909-4 0 9993 2 35931 98.2222 348.7737 0016182 40.8792 319.3585 13.99624340853477 WORLDVIEW-2 (WV-2) 1 35946U 09055A 25348.33866854 .00000205 00000+0 82576-4 0 9999 2 35946 98.4788 59.4010 0005131 66.5899 293.5827 14.37724694849087 SMOS 1 36036U 09059A 25348.26007847 .00000504 00000+0 17462-3 0 9998 2 36036 98.4380 173.2860 0001100 84.1524 275.9790 14.39742688846846 YAOGAN-7 1 36110U 09069A 25348.25390404 .00000889 00000+0 13094-3 0 9998 2 36110 98.0299 230.0055 0023356 276.1334 83.7216 14.77735287862318 TANDEM-X 1 36605U 10030A 25347.57495602 .00002473 00000+0 12093-3 0 9996 2 36605 97.4458 352.9445 0001949 84.6239 275.5218 15.19152153858460 CARTOSAT-2B 1 36795U 10035A 25348.33428088 .00001205 00000+0 17082-3 0 9995 2 36795 97.7855 37.3130 0013045 71.7948 288.4682 14.78728547832531 YAOGAN-10 1 36834U 10038A 25348.33555421 .00001657 00000+0 20249-3 0 9994 2 36834 97.9148 8.1446 0001413 80.3770 40.6155 14.84615793829773 COSMO-SKYMED 4 1 37216U 10060A 25348.32994044 .00000962 00000+0 12735-3 0 9990 2 37216 97.8808 169.6291 0001384 82.1355 278.0016 14.82147242817189 RESOURCESAT-2 1 37387U 11015A 25348.33407803 .00000207 00000+0 11477-3 0 9997 2 37387 98.7877 51.8788 0006362 38.4855 321.6775 14.21598027759914 HAIYANG-2A 1 37781U 11043A 25348.30125561 -.00000071 00000+0 -26729-4 0 9999 2 37781 99.3383 349.2119 0001647 81.2622 278.8716 13.78834804721208 RASAT 1 37791U 11044D 25348.33401295 .00001127 00000+0 20481-3 0 9994 2 37791 98.0644 77.5676 0021835 60.2363 9.4849 14.67914232766065 SRMSAT 1 37841U 11058D 25348.35795935 .00000479 00000+0 11649-3 0 9999 2 37841 19.9714 98.1565 0011795 331.3293 63.8110 14.11512094731678 PLEIADES 1A 1 38012U 11076F 25348.38285975 .00000667 00000+0 15321-3 0 9991 2 38012 98.1820 61.1258 0001272 74.3539 353.2678 14.58564201745051 ZIYUAN 1-02C (ZY 1-02C) 1 38038U 11079A 25348.36802557 .00000768 00000+0 26807-3 0 9994 2 38038 98.4330 54.3514 0007260 134.0821 3.2291 14.38015140732643 ZIYUAN 3-1 (ZY 3-1) 1 38046U 12001A 25348.30822736 .00078442 00000+0 68089-3 0 9996 2 38046 97.1758 54.7627 0001679 342.5300 17.5904 15.68861051775210 ARIRANG-3 (KOMPSAT-3) 1 38338U 12025B 25348.31752877 .00000836 00000+0 17760-3 0 9997 2 38338 98.3324 302.9188 0005254 333.6145 26.4787 14.61715550724336 EXACTVIEW-1 (ADS-1B) 1 38709U 12039C 25348.28844520 .00000206 00000+0 10819-3 0 9996 2 38709 98.9636 96.7110 0010595 349.6477 10.4482 14.24908824696376 SPOT 6 1 38755U 12047A 25348.31592258 .00000735 00000+0 16756-3 0 9991 2 38755 98.1570 53.0713 0001158 99.2965 260.8365 14.58606180706107 PLEIADES 1B 1 39019U 12068A 25348.33530698 .00000747 00000+0 17057-3 0 9998 2 39019 98.1790 60.9614 0001215 84.3228 275.8110 14.58555934693900 GOKTURK 2 1 39030U 12073A 25348.34448328 .00001199 00000+0 18396-3 0 9995 2 39030 97.6896 189.9192 0001046 105.4001 254.7325 14.75295588697254 LANDSAT 8 1 39084U 13008A 25348.30444744 .00000563 00000+0 13509-3 0 9992 2 39084 98.2072 56.3548 0001081 89.6772 270.4550 14.57115872670977 SARAL 1 39086U 13009A 25348.33379855 .00000176 00000+0 80720-4 0 9998 2 39086 98.5503 172.2434 0002897 105.6923 254.4581 14.32757669669137 GAOFEN-1 1 39150U 13018A 25348.32846263 .00001371 00000+0 20346-3 0 9996 2 39150 97.9324 58.9596 0018323 138.1085 222.1531 14.76539734680963 VNREDSAT 1 1 39160U 13021B 25348.32916378 .00001107 00000+0 21540-3 0 9990 2 39160 97.9372 43.5482 0001281 79.3823 280.7525 14.64927055673220 ARIRANG-5 (KOMPSAT-5) 1 39227U 13042A 25348.33941729 .00002384 00000+0 17457-3 0 9996 2 39227 97.6147 172.6203 0003576 50.5012 309.6530 15.04514337676068 SKYSAT-A 1 39418U 13066C 25348.13087790 .00004038 00000+0 24024-3 0 9997 2 39418 97.4113 38.2972 0020709 231.2859 128.6520 15.11618843660511 DUBAISAT-2 1 39419U 13066D 25348.30671877 .00006914 00000+0 44803-3 0 9994 2 39419 97.4457 338.6658 0010386 316.2814 43.7591 15.08384291658500 GPM-CORE 1 39574U 14009C 25348.18005656 .00008428 00000+0 18583-3 0 9994 2 39574 64.9734 207.8575 0009765 245.6852 114.3269 15.44494521669237 SENTINEL-1A 1 39634U 14016A 25348.29329566 .00000032 00000+0 16436-4 0 9999 2 39634 98.1807 353.5120 0001238 85.5781 274.5560 14.59199634623053 KAZEOSAT 1 1 39731U 14024A 25348.31664924 .00000423 00000+0 14197-3 0 9994 2 39731 98.3430 60.1883 0001122 96.5115 263.6203 14.42064462611914 ALOS-2 1 39766U 14029A 25348.36623256 .00002302 00000+0 31508-3 0 9998 2 39766 97.9225 83.1892 0001379 102.2886 257.8480 14.79469978624252 KAZEOSAT 2 1 40010U 14033A 25348.30943315 .00000735 00000+0 91599-4 0 9997 2 40010 97.5507 192.5429 0007783 201.2576 158.8318 14.85170103621519 HODOYOSHI-4 1 40011U 14033B 25348.29058549 .00002706 00000+0 30287-3 0 9998 2 40011 97.5419 177.0980 0023276 195.0391 165.0137 14.87490881621319 DEIMOS-2 1 40013U 14033D 25348.32264884 .00002150 00000+0 21221-3 0 9996 2 40013 97.6062 224.0705 0000884 107.9252 252.2064 14.92979887610132 HODOYOSHI-3 1 40015U 14033F 25348.30729398 .00001995 00000+0 23907-3 0 9991 2 40015 97.6197 154.0741 0031946 242.5815 117.2150 14.84814036620186 SPOT 7 1 40053U 14034A 25348.31741797 .00001057 00000+0 22608-3 0 9998 2 40053 98.0905 50.3563 0001555 87.5539 272.5840 14.60738011610141 SKYSAT-B 1 40072U 14037D 25348.23410042 .00002060 00000+0 23478-3 0 9990 2 40072 98.3608 292.0191 0006267 145.6568 214.5053 14.87335119618466 WORLDVIEW-3 (WV-3) 1 40115U 14048A 25348.32372481 .00001305 00000+0 15727-3 0 9993 2 40115 97.8616 60.5841 0004923 179.2575 180.8648 14.85517340614473 GAOFEN-2 1 40118U 14049A 25348.36325633 .00001281 00000+0 17386-3 0 9994 2 40118 98.0384 47.5344 0008640 108.2707 251.9445 14.80614589611888 YAOGAN-21 1 40143U 14053A 25348.38974616 .00006528 00000+0 27436-3 0 9996 2 40143 97.1764 31.6311 0009592 36.0808 324.1075 15.23703675626794 YAOGAN-22 1 40275U 14063A 25348.30509272 -.00000029 00000+0 47634-4 0 9991 2 40275 100.7422 131.7467 0005962 244.3462 115.7034 13.15522700535507 ASNARO 1 40298U 14070A 25348.31966152 .00012840 00000+0 60641-3 0 9994 2 40298 97.3650 64.2275 0005679 117.1306 243.0508 15.19543545615935 YAOGAN-24 1 40310U 14072A 25348.37119697 .00001170 00000+0 17651-3 0 9998 2 40310 98.1217 119.4724 0014836 133.1100 227.1353 14.76182306596457 CBERS 4 1 40336U 14079A 25348.32818287 .00000232 00000+0 95367-4 0 9998 2 40336 98.3307 46.2904 0001684 110.5030 249.6337 14.35518736577435 YAOGAN-26 1 40362U 14088A 25348.29448041 .00024295 00000+0 62203-3 0 9997 2 40362 97.0643 348.9135 0005936 24.9610 335.1923 15.39374928609185 SMAP 1 40376U 15003A 25348.32786017 .00000768 00000+0 15780-3 0 9999 2 40376 98.1291 353.0288 0001210 90.2849 269.8492 14.63347485580588 KOMPSAT-3A 1 40536U 15014A 25348.36531589 .00020325 00000+0 44692-3 0 9990 2 40536 97.6785 322.8017 0005082 123.5984 236.5749 15.44020102593206 SENTINEL-2A 1 40697U 15028A 25348.31957196 .00000392 00000+0 16629-3 0 9995 2 40697 98.5688 60.8290 0001079 89.1119 271.0188 14.30814845547295 GAOFEN-8 1 40701U 15030A 25348.33066728 .00014761 00000+0 38833-3 0 9994 2 40701 97.6911 166.5477 0011684 132.2562 227.9676 15.38609485582951 CARBONITE 1 (CBNT-1) 1 40718U 15032D 25348.33587963 .00003188 00000+0 40010-3 0 9994 2 40718 97.6405 169.3094 0014518 175.7847 184.3492 14.82756299561942 YAOGAN-27 1 40878U 15040A 25348.29742245 -.00000340 00000+0 -78416-3 0 9991 2 40878 100.1016 337.8471 0007632 283.0574 76.9688 13.16059396493348 GAOFEN-9 01 1 40894U 15047A 25348.35110385 .00001596 00000+0 20412-3 0 9992 2 40894 97.6542 27.2370 0028279 29.1617 331.1169 14.82427180552806 YAOGAN-28 1 41026U 15064A 25348.34484350 .00010016 00000+0 41055-3 0 9997 2 41026 97.2800 126.0915 0012426 120.8754 239.3708 15.24390418562492 YAOGAN-29 1 41038U 15069A 25348.37159096 .00001304 00000+0 16764-3 0 9993 2 41038 98.0225 11.5487 0000093 239.4401 120.6803 14.82887575543237 KENT RIDGE 1 1 41167U 15077B 25348.21524396 .00005475 00000+0 20248-3 0 9992 2 41167 14.9784 200.1922 0008536 151.6516 208.4271 15.21651645552863 GAOFEN-4 1 41194U 15083A 25348.29466360 -.00000316 00000+0 00000+0 0 9993 2 41194 0.1744 81.3484 0003374 103.7373 109.8873 1.00268943 36677 JASON-3 1 41240U 16002A 25348.30361234 -.00000018 00000+0 17307-3 0 9994 2 41240 66.0391 154.5362 0007151 270.9162 89.1038 12.87626611463445 SENTINEL-3A 1 41335U 16011A 25348.28395588 .00000228 00000+0 11242-3 0 9999 2 41335 98.6314 53.2743 0000940 91.3619 268.7669 14.26731516511697 ZIYUAN 3-2 (ZY 3-2) 1 41556U 16033A 25348.36473536 .00008747 00000+0 39047-3 0 9994 2 41556 97.4045 62.5055 0012594 242.8599 117.1354 15.21534544529883 CARTOSAT-2C 1 41599U 16040A 25348.31153815 .00005663 00000+0 27101-3 0 9991 2 41599 97.4767 45.5463 0010681 59.6865 300.5425 15.19317272525641 SKYSAT-C1 1 41601U 16040C 25348.09202274 .00010139 00000+0 32402-3 0 9998 2 41601 96.9829 25.0294 0002225 11.9046 348.2249 15.32623766529482 LAPAN-A3 1 41603U 16040E 25348.26284968 .00005090 00000+0 16922-3 0 9998 2 41603 97.1430 345.7639 0009485 328.0062 32.0603 15.31568458526490 BIROS 1 41604U 16040F 25348.04903118 .00184229 14255-4 61164-3 0 9992 2 41604 97.0681 19.5346 0003572 145.8240 214.3265 15.90316280528932 GAOFEN-3 1 41727U 16049A 25348.33065215 .00000254 00000+0 90427-4 0 9994 2 41727 98.4044 353.8929 0001383 60.3703 299.7625 14.42214748492007 SKYSAT-C4 1 41771U 16058B 25348.35475593 .00016471 00000+0 38400-3 0 9999 2 41771 96.9380 13.4639 0001676 135.2939 224.8445 15.42308576516928 SKYSAT-C5 1 41772U 16058C 25348.11773885 .00010981 00000+0 33072-3 0 9999 2 41772 97.0774 31.8129 0001679 214.9600 145.1534 15.34499873515373 SKYSAT-C2 1 41773U 16058D 25348.04814262 .00012879 00000+0 35412-3 0 9995 2 41773 97.0369 12.5196 0004113 31.3010 328.8480 15.37310352516565 SKYSAT-C3 1 41774U 16058E 25348.07295073 .00020230 00000+0 43827-3 0 9991 2 41774 96.9307 21.7570 0001706 107.5774 252.5662 15.44456794517466 ALSAT 1B 1 41785U 16059C 25348.30108506 .00001042 00000+0 17304-3 0 9995 2 41785 97.7819 0.0238 0010736 98.6398 261.6027 14.72079370493371 PATHFINDER 1 1 41787U 16059E 25348.29129298 .00001116 00000+0 20454-3 0 9998 2 41787 97.8139 350.9929 0030013 76.5228 283.9319 14.67324498492592 SCATSAT 1 1 41790U 16059H 25348.28053882 .00002067 00000+0 28031-3 0 9991 2 41790 98.1466 44.9701 0056334 123.1232 237.5402 14.78944340 74252 GOKTURK 1A 1 41875U 16073A 25348.28137197 .00000877 00000+0 18109-3 0 9995 2 41875 98.1425 240.6262 0001256 79.6148 280.5196 14.62783041481793 RESOURCESAT-2A 1 41877U 16074A 25348.31641456 .00000554 00000+0 27290-3 0 9993 2 41877 98.7754 58.1628 0001200 246.3292 113.7759 14.21601772468035 CARTOSAT-2D 1 41948U 17008A 25348.34573765 .00004895 00000+0 23518-3 0 9991 2 41948 97.4394 45.8186 0004833 156.4375 203.7082 15.19281272489512 SENTINEL-2B 1 42063U 17013A 25348.38231130 .00000357 00000+0 15304-3 0 9990 2 42063 98.5711 60.8047 0001165 92.9926 267.1390 14.30817664458211 CARTOSAT-2E 1 42767U 17036C 25348.29624413 .00006477 00000+0 31073-3 0 9996 2 42767 97.4561 45.8626 0002065 230.7930 129.3122 15.19222015470074 FORMOSAT-5 1 42920U 17049A 25348.29010222 .00000332 00000+0 94993-4 0 9993 2 42920 98.2452 62.5784 0009847 290.1767 69.8369 14.51006633439861 SENTINEL-5P 1 42969U 17064A 25348.31752252 .00000120 00000+0 77900-4 0 9996 2 42969 98.7785 286.8876 0000977 88.9890 271.1398 14.19518068423335 SKYSAT-C11 1 42987U 17068A 25348.36076049 .00024350 00000+0 47454-3 0 9999 2 42987 97.4136 125.8924 0001066 101.5885 258.5485 15.47532802454562 SKYSAT-C10 1 42988U 17068B 25348.29713507 .00012497 00000+0 40527-3 0 9992 2 42988 97.4254 119.1519 0005403 99.1734 261.0119 15.32107313454038 SKYSAT-C9 1 42989U 17068C 25348.32068950 .00015092 00000+0 43036-3 0 9994 2 42989 97.4183 118.5865 0010639 82.3903 277.8549 15.36103456454328 SKYSAT-C8 1 42990U 17068D 25348.32918449 .00013269 00000+0 41888-3 0 9990 2 42990 97.4275 118.3358 0001497 341.2661 18.8525 15.32967524453952 SKYSAT-C7 1 42991U 17068E 25348.35603906 .00012040 00000+0 38722-3 0 9992 2 42991 97.4281 119.4027 0007571 51.8914 308.3009 15.32371462454022 SKYSAT-C6 1 42992U 17068F 25348.33570048 .00011818 00000+0 39036-3 0 9992 2 42992 97.4316 119.8195 0005144 77.8804 282.3014 15.31531976454004 CARTOSAT-2F 1 43111U 18004A 25348.32905030 .00004467 00000+0 21490-3 0 9996 2 43111 97.4319 45.9412 0001139 140.8780 219.2537 15.19296067439261 GAOFEN-1 02 1 43259U 18031A 25348.35133771 .00001992 00000+0 29400-3 0 9996 2 43259 98.0806 46.1413 0001836 210.1382 149.9722 14.76423211415421 GAOFEN-1 03 1 43260U 18031B 25348.32963154 .00001283 00000+0 19194-3 0 9993 2 43260 98.0797 45.9963 0001897 314.6184 45.4870 14.76440973415413 GAOFEN-1 04 1 43262U 18031D 25348.30526609 .00001390 00000+0 20715-3 0 9993 2 43262 98.0807 46.1413 0000993 58.8443 301.2864 14.76455337415406 SENTINEL-3B 1 43437U 18039A 25348.18704484 .00000197 00000+0 99515-4 0 9999 2 43437 98.6267 53.3518 0001625 100.1630 259.9734 14.26734637397743 GAOFEN-5 01 1 43461U 18043A 25348.15577207 .00000627 00000+0 13964-3 0 9990 2 43461 98.4328 311.1477 0000862 334.3515 25.7642 14.60411641404684 GAOFEN-6 1 43484U 18048A 25348.34448028 .00001633 00000+0 24081-3 0 9999 2 43484 97.8029 52.5572 0013152 59.1144 301.1358 14.76572160406114 GAOFEN-11 01 1 43585U 18063A 25348.30395016 .00022054 00000+0 40454-3 0 9994 2 43585 97.1563 51.2250 0004258 305.7541 54.3314 15.49283618411662 ICESAT-2 1 43613U 18070A 25348.24249042 .00014059 00000+0 51011-3 0 9991 2 43613 92.0048 241.1429 0002486 138.2582 221.8858 15.28287648404210 HYSIS 1 43719U 18096A 25348.33555916 .00002135 00000+0 29848-3 0 9991 2 43719 98.0097 51.3052 0001258 56.7392 303.3939 14.78653219380101 KAZSTSAT 1 43783U 18099AB 25348.33649538 .00001408 00000+0 11974-3 0 9992 2 43783 97.4558 23.4534 0005876 323.3537 36.7285 14.99358325383608 SAUDISAT 5A 1 43831U 18102A 25348.36499392 .00006966 00000+0 27577-3 0 9995 2 43831 97.3356 48.5247 0011706 71.3070 288.9438 15.25684664387475 SAUDISAT 5B 1 43833U 18102C 25348.35510571 .00006526 00000+0 25580-3 0 9993 2 43833 97.3451 51.2564 0012433 73.5254 286.7350 15.26035398387588 GAOFEN-10R 1 44622U 19066A 25348.34528138 .00002287 00000+0 28941-3 0 9991 2 44622 98.0276 295.8578 0007763 37.4184 322.7569 14.82800543334982 CARTOSAT-3 1 44804U 19081A 25348.34289020 .00003944 00000+0 19039-3 0 9993 2 44804 97.4585 47.9061 0014163 78.0352 282.2470 15.19169202335403 GAOFEN-12 01 1 44819U 19082A 25348.29746573 .00000712 00000+0 99229-4 0 9995 2 44819 97.8126 354.5376 0001400 224.0642 136.0459 14.80659587326731 CSG-1 1 44873U 19092A 25348.34259197 .00000859 00000+0 11442-3 0 9995 2 44873 97.8810 169.6427 0001433 84.4736 275.6641 14.82167205324094 NEMO-HD 1 46277U 20061F 25348.31842848 .00012166 00000+0 30314-3 0 9994 2 46277 97.2216 47.3962 0001784 54.8556 305.2857 15.40370239293489 SENTINEL-6A 1 46984U 20086A 25348.20168444 -.00000022 00000+0 16975-3 0 9993 2 46984 66.0389 159.2715 0007728 269.2435 90.7695 12.80930703236639 GAOFEN-12 02 1 48079U 21026A 25348.29533270 .00000738 00000+0 10282-3 0 9995 2 48079 97.9852 342.2942 0003574 97.9701 262.1917 14.80677513254403 PLEIADES NEO 3 1 48268U 21034A 25348.75444618 .00001503 00000+0 19752-3 0 9994 2 48268 97.8948 61.1664 0001333 97.6005 262.5359 14.81671220250344 PLEIADES NEO 4 1 49070U 21073E 25346.35703205 -.00000022 00000+0 38133-5 0 9995 2 49070 97.8941 58.7994 0001237 92.1719 267.9635 14.81676895233702 LANDSAT 9 1 49260U 21088A 25348.27016883 .00000602 00000+0 14365-3 0 9996 2 49260 98.2094 56.3591 0001158 89.2114 270.9217 14.57099885224073 CSG-2 1 51444U 22008A 25348.30883395 .00000349 00000+0 50377-4 0 9992 2 51444 97.8808 169.6081 0001489 81.2827 278.8555 14.82165074209202 GAOFEN-12 03 1 52912U 22069A 25348.32721839 .00002048 00000+0 27993-3 0 9991 2 52912 97.8481 235.6395 0002161 60.0157 300.1269 14.79616457187276 SWOT 1 54754U 22173A 25348.27900684 .00000105 00000+0 72722-4 0 9997 2 54754 77.6107 284.9118 0000335 106.5532 253.5657 14.00167213153277 GAOFEN-12 04 1 57654U 23123A 25348.36288252 .00001773 00000+0 24285-3 0 9997 2 57654 97.9119 264.0955 0001329 75.0969 285.0390 14.79707295125294 PARS 1 1 59065U 24039Q 25348.35673691 .00012834 00000+0 31216-3 0 9998 2 59065 97.4632 319.3241 0012497 67.4418 292.8149 15.41021026100136 RESURS-P 4 1 59371U 24061A 25348.34033416 .00004864 00000+0 15939-3 0 9995 2 59371 97.2540 294.6375 0001413 54.3863 305.7510 15.32102392 95450 LEGION 1 1 59625U 24081A 25348.31552707 .00005720 00000+0 29699-3 0 9995 2 59625 97.5213 62.9405 0003883 311.0358 49.0539 15.16501018 89516 LEGION 2 1 59626U 24081B 25348.34854488 .00005898 00000+0 30597-3 0 9995 2 59626 97.5218 63.0605 0005653 286.8729 73.1884 15.16514772 89527 ALOS-4 (DAICHI-4) 1 60182U 24123A 25344.86865200 .00002905 00000+0 39567-3 0 9990 2 60182 97.9225 79.7424 0001419 101.2045 258.9326 14.79478132 78033 LEGION 3 1 60452U 24146A 25348.27186213 .00006443 00000+0 34439-3 0 9998 2 60452 45.0016 301.9190 0015031 206.9208 153.0892 15.15783472 73961 LEGION 4 1 60453U 24146B 25348.27238904 .00006175 00000+0 33056-3 0 9990 2 60453 45.0397 33.6715 0009352 318.9925 41.0250 15.15846404 72817 SENTINEL-2C 1 60989U 24157A 25348.20760936 .00000181 00000+0 85816-4 0 9997 2 60989 98.5682 60.6691 0001204 97.3326 262.7994 14.30818173 66532 IONOSFERA-M 1 1 61735U 24199A 25348.30457591 .00000079 00000+0 55122-4 0 9997 2 61735 98.7403 218.1408 0000886 19.5825 340.5387 14.22714392101413 IONOSFERA-M 2 1 61736U 24199B 25348.33922003 .00000086 00000+0 58247-4 0 9995 2 61736 98.7402 218.0877 0001684 108.1915 251.9447 14.22716615104543 BIOMASS 1 63772U 25090A 25348.11763870 .00001871 00000+0 33823-3 0 9994 2 63772 98.0700 173.1071 0001148 78.5565 281.5769 14.67544972 33543 GOSAT-GW (IBUKI GW) 1 64694U 25141A 25348.35066714 .00001417 00000+0 25818-3 0 9995 2 64694 98.0426 283.8343 0001468 84.2296 275.9076 14.67561879 24737 IONOSFERA-M 3 1 64876U 25155A 25348.33200550 .00000120 00000+0 74490-4 0 9999 2 64876 98.5784 310.1530 0002201 57.6553 302.4837 14.21441508 20147 IONOSFERA-M 4 1 64877U 25155B 25348.36707032 .00000126 00000+0 77210-4 0 9999 2 64877 98.5783 310.1066 0001574 61.8925 298.2412 14.21442676 20141 MICROCARB 1 64899U 25156A 25348.21403574 .00000989 00000+0 16489-3 0 9999 2 64899 98.0025 63.5358 0017222 140.2457 220.0016 14.72060033 20750 CO3D 3 1 64900U 25156B 25347.69902622 .00003358 00000+0 15818-3 0 9999 2 64900 97.4344 64.0523 0001384 93.9049 266.2345 15.20200330 21357 CO3D 4 1 64901U 25156C 25346.64598682 .00001059 00000+0 52042-4 0 9998 2 64901 97.4314 63.0114 0001018 237.4062 122.7075 15.20210943 21193 CO3D 2 1 64902U 25156D 25346.87600341 .00002342 00000+0 10503-3 0 9991 2 64902 97.4215 63.2016 0020386 351.3096 8.7784 15.22031437 21224 CO3D 1 1 64903U 25156E 25345.62524784 .00011603 00000+0 49387-3 0 9992 2 64903 97.3738 62.1786 0068806 215.7870 143.8746 15.20971930 21035 SENTINEL-6B 1 66514U 25264A 25346.25094248 -.00000015 00000+0 19742-3 0 9997 2 66514 66.0385 163.4531 0007848 270.1768 89.8348 12.81479583 3228